Flag for Germany Weather past 2 weeks in Emden, Lower Saxony, Germany

Now
53 °F

Fog.


Feels Like: 53 °F
Forecast: 40 / 63 °F
Wind: 2 mph from West

Location: Emden-Koenigspolder

Current Time: May 23, 2015 at 5:45:56 AM

Latest Report: May 23, 2015 at 5:00 AM


Visibility: 4 mi

Pressure: 30.14 "Hg

Humidity: 92%

Dew point: 51 °F

Location of EmdenLocation

Historic Weather in Emden — Graph

°F

Emden temperature yesterday

Maximum temperature yesterday: 66 °F (at 2:00 PM)
Minimum temperature yesterday: 48 °F (at 4:00 AM)
Average temperature yesterday: 57 °F

Past Weeks' High & Low Weather Summary

 TemperatureHumidityPressure
High76 °F (May 11, 6:00 PM)100% (May 8, 6:00 AM)30.32 "Hg (May 8, 6:00 AM)
Low36 °F (May 15, 4:00 AM)41% (May 11, 4:00 PM)29.54 "Hg (May 18, 9:00 PM)
Average52 °F76%30.03 "Hg
* Reported May 8 4:00 AM — May 23 4:00 AM, Emden, Weather by CustomWeather, © 2015

Note: Actual official high and low records may vary slightly from our data, if they occured in-between our weather recording intervals... More about our weather records

Advertising

Emden weather history for previous 24 hours

 ConditionsComfort  
Time TempWeatherWind HumidityBarometerVisibility
4:00 AM
Sat, May 23
53 °FOvercast.2 mph88%30.15 "Hg6 mi
3:00 AM54 °FOvercast.3 mph83%30.16 "Hg7 mi
2:00 AM55 °FOvercast.3 mph79%30.17 "Hg11 mi
1:00 AM57 °FOvercast.2 mph73%30.17 "Hg14 mi
12:00 AM56 °FOvercast.1 mph79%30.18 "Hg12 mi
11:00 PM
Fri, May 22
56 °FOvercast.2 mph80%30.18 "Hg11 mi
10:00 PM57 °FOvercast.3 mph77%30.19 "Hg14 mi
9:00 PM58 °FOvercast.2 mph72%30.19 "Hg16 mi
8:00 PM58 °FOvercast.3 mph70%30.18 "Hg17 mi
7:00 PM59 °FOvercast.5 mph67%30.19 "Hg12 mi
6:00 PM60 °FOvercast.7 mph64%30.20 "Hg7 mi
5:00 PM63 °FPartly sunny.7 mph58%30.20 "Hg3 mi
4:00 PM65 °FPassing clouds.6 mph62%30.21 "Hg7 mi
3:00 PM64 °FOvercast.5 mph57%30.22 "Hg6 mi
2:00 PM66 °FPartly sunny.5 mph57%30.22 "Hg3 mi
1:00 PM65 °FScattered clouds.5 mph60%30.23 "Hg4 mi
12:00 PM62 °FPassing clouds.3 mph65%30.24 "Hg3 mi
10:00 AM58 °FScattered clouds.5 mph73%30.26 "Hg4 mi
9:00 AM55 °FPartly sunny.5 mph74%30.27 "Hg7 mi
8:00 AM53 °FOvercast.3 mph78%30.26 "Hg6 mi
7:00 AM51 °FOvercast.3 mph85%30.27 "Hg8 mi
6:00 AM49 °FScattered clouds.2 mph89%30.27 "Hg9 mi
Weather by CustomWeather, © 2015

See weather overviewHow to use our weather pages